Location: Huisseau
(47.5933°N, 1.4533°E)
Time: 17:51:01
(UTC+00:00)

CENTAUR R/B - Pass Details

Date: 19 November 2025
Orbit: 633 x 1547 km, 63.4° (Epoch: 06 December)

Event Time Altitude Azimuth Distance (km) Brightness Sun altitude
Exits shadow 02:17:21 32° 42° (NE) 2,174 4.5 -47.5°
Drops below altitude 10° 02:23:58 10° 87° (E) 3,619 5.9 -46.5°
Sets 02:27:33 0° 97° (E) 4,665 6.6 -46.0°
